AFR848 FGSL-FKKD

Flight info

Callsign AFR848
Flight time 0h 25m
Altitude 9000
Route EDGAD EDGAD1A
Aircraft A359/H-SDE2E3GHIJ3J4J5LM1ORWXY/LB1D1

Departure

Time 2026-04-30 04:26
Airport Malabo International Airport (FGSL)

Arrival

Time 2026-04-30 04:51
Airport Douala International Airport (FKKD)
Time Latitude Longitude Altitude Speed Heading
2026-04-30 04:05 3.75251 8.71111 54 ft 0 kts 134°
2026-04-30 04:17 3.75254 8.71109 56 ft 1 kts 134°
2026-04-30 04:17 3.75260 8.71102 56 ft 2 kts 134°
2026-04-30 04:17 3.75266 8.71096 40 ft 1 kts 134°
2026-04-30 04:17 3.75273 8.71089 43 ft 1 kts 134°
2026-04-30 04:18 3.75274 8.71088 44 ft 0 kts 134°
2026-04-30 04:19 3.75286 8.71078 47 ft 3 kts 130°
2026-04-30 04:19 3.75295 8.71061 45 ft 3 kts 88°
2026-04-30 04:19 3.75291 8.71043 45 ft 3 kts 49°
2026-04-30 04:19 3.75289 8.71040 45 ft 0 kts 39°
2026-04-30 04:20 3.75292 8.71043 45 ft 3 kts 39°
2026-04-30 04:20 3.75329 8.71076 50 ft 11 kts 42°
2026-04-30 04:21 3.75408 8.71128 48 ft 14 kts
2026-04-30 04:21 3.75479 8.71085 45 ft 7 kts 334°
2026-04-30 04:21 3.75517 8.71099 47 ft 9 kts 34°
2026-04-30 04:21 3.75584 8.71157 45 ft 16 kts 42°
2026-04-30 04:22 3.75686 8.71249 56 ft 23 kts 43°
2026-04-30 04:22 3.75770 8.71356 56 ft 10 kts 91°
2026-04-30 04:22 3.75796 8.71426 52 ft 14 kts 47°
2026-04-30 04:22 3.75887 8.71506 54 ft 21 kts 41°
2026-04-30 04:23 3.75966 8.71578 56 ft 0 kts 34°
2026-04-30 04:23 3.75978 8.71584 59 ft 5 kts 24°
2026-04-30 04:23 3.76024 8.71581 63 ft 9 kts
2026-04-30 04:23 3.76096 8.71618 57 ft 15 kts 43°
2026-04-30 04:24 3.76186 8.71701 60 ft 20 kts 40°
2026-04-30 04:24 3.76305 8.71806 64 ft 25 kts 41°
2026-04-30 04:24 3.76404 8.71883 63 ft 0 kts
2026-04-30 04:24 3.76417 8.71881 63 ft 5 kts 350°
2026-04-30 04:25 3.76465 8.71844 60 ft 13 kts 308°
2026-04-30 04:25 3.76480 8.71759 63 ft 10 kts 255°
2026-04-30 04:25 3.76445 8.71686 59 ft 14 kts 236°
2026-04-30 04:25 3.76259 8.71516 58 ft 76 kts 221°
2026-04-30 04:26 3.75632 8.70959 68 ft 161 kts 221°
2026-04-30 04:26 3.74731 8.70145 814 ft 177 kts 222°
2026-04-30 04:26 3.73819 8.69307 1829 ft 184 kts 223°
2026-04-30 04:26 3.72872 8.68323 2452 ft 209 kts 234°
2026-04-30 04:27 3.72428 8.66894 3129 ft 231 kts 268°
2026-04-30 04:27 3.72834 8.65267 3848 ft 252 kts 299°
2026-04-30 04:27 3.74061 8.63975 4746 ft 264 kts 328°
2026-04-30 04:27 3.75818 8.63376 5670 ft 272 kts 356°
2026-04-30 04:28 3.77681 8.63656 6734 ft 272 kts 25°
2026-04-30 04:28 3.79294 8.64635 7760 ft 272 kts 39°
2026-04-30 04:28 3.80768 8.65824 8481 ft 272 kts 46°
2026-04-30 04:28 3.81945 8.67288 8867 ft 270 kts 62°
2026-04-30 04:29 3.82555 8.69047 8966 ft 268 kts 84°
2026-04-30 04:29 3.82600 8.70484 8967 ft 268 kts 92°
2026-04-30 04:29 3.82499 8.72348 8963 ft 269 kts 93°
2026-04-30 04:29 3.82380 8.74211 8962 ft 268 kts 93°
2026-04-30 04:30 3.82262 8.76081 8960 ft 270 kts 93°
2026-04-30 04:30 3.82145 8.77953 8960 ft 269 kts 93°
2026-04-30 04:30 3.82030 8.79821 8960 ft 269 kts 93°
2026-04-30 04:30 3.81915 8.81692 8961 ft 269 kts 93°
2026-04-30 04:31 3.81800 8.83557 8963 ft 269 kts 93°
2026-04-30 04:31 3.81686 8.85426 8961 ft 269 kts 93°
2026-04-30 04:31 3.81572 8.87289 8961 ft 269 kts 93°
2026-04-30 04:31 3.81457 8.89159 8960 ft 269 kts 93°
2026-04-30 04:32 3.81343 8.91030 8960 ft 269 kts 93°
2026-04-30 04:32 3.81230 8.92873 8961 ft 269 kts 93°
2026-04-30 04:32 3.81115 8.94742 8961 ft 269 kts 93°
2026-04-30 04:32 3.81001 8.96613 8960 ft 269 kts 93°
2026-04-30 04:33 3.80886 8.98481 8960 ft 269 kts 93°
2026-04-30 04:33 3.80772 9.00351 8960 ft 268 kts 93°
2026-04-30 04:33 3.80657 9.02222 8961 ft 269 kts 93°
2026-04-30 04:33 3.80542 9.04087 8960 ft 269 kts 93°
2026-04-30 04:34 3.80427 9.05959 8963 ft 268 kts 93°
2026-04-30 04:34 3.80314 9.07805 8963 ft 268 kts 93°
2026-04-30 04:34 3.80199 9.09670 8950 ft 268 kts 93°
2026-04-30 04:34 3.80085 9.11535 8952 ft 269 kts 93°
2026-04-30 04:35 3.79969 9.13411 8955 ft 270 kts 93°
2026-04-30 04:35 3.79867 9.15083 8955 ft 269 kts 93°
2026-04-30 04:35 3.79752 9.16953 8955 ft 270 kts 93°
2026-04-30 04:35 3.79636 9.18832 8955 ft 270 kts 93°
2026-04-30 04:36 3.79522 9.20684 8955 ft 270 kts 93°
2026-04-30 04:36 3.79407 9.22556 8955 ft 269 kts 93°
2026-04-30 04:36 3.79291 9.24431 8952 ft 270 kts 93°
2026-04-30 04:36 3.79175 9.26313 8952 ft 270 kts 93°
2026-04-30 04:37 3.79060 9.28186 8952 ft 270 kts 93°
2026-04-30 04:37 3.78944 9.30062 8952 ft 270 kts 93°
2026-04-30 04:37 3.78828 9.31944 8952 ft 270 kts 93°
2026-04-30 04:37 3.78713 9.33816 8952 ft 270 kts 93°
2026-04-30 04:38 3.78598 9.35670 8952 ft 270 kts 93°
2026-04-30 04:38 3.78483 9.37541 8952 ft 270 kts 93°
2026-04-30 04:38 3.78367 9.39419 8949 ft 270 kts 93°
2026-04-30 04:38 3.78251 9.41293 8949 ft 270 kts 93°
2026-04-30 04:39 3.78135 9.43169 8942 ft 269 kts 93°
2026-04-30 04:39 3.78019 9.45043 8789 ft 270 kts 93°
2026-04-30 04:39 3.77903 9.46917 8543 ft 269 kts 93°
2026-04-30 04:39 3.77788 9.48788 8298 ft 269 kts 93°
2026-04-30 04:40 3.77672 9.50653 8054 ft 269 kts 93°
2026-04-30 04:40 3.77557 9.52519 7832 ft 266 kts 93°
2026-04-30 04:40 3.77445 9.54330 7672 ft 265 kts 93°
2026-04-30 04:40 3.77329 9.56192 7385 ft 269 kts 93°
2026-04-30 04:41 3.77221 9.58061 7058 ft 269 kts 92°
2026-04-30 04:41 3.77357 9.59927 6797 ft 269 kts 81°
2026-04-30 04:41 3.77688 9.61775 6590 ft 270 kts 80°
2026-04-30 04:41 3.78033 9.63628 6386 ft 270 kts 80°
2026-04-30 04:42 3.78373 9.65479 6156 ft 270 kts 80°
2026-04-30 04:42 3.78712 9.67335 5937 ft 270 kts 80°
2026-04-30 04:42 3.79045 9.69165 5727 ft 270 kts 80°
2026-04-30 04:42 3.79381 9.71013 5511 ft 270 kts 80°
2026-04-30 04:43 3.79716 9.72861 5303 ft 270 kts 80°
2026-04-30 04:43 3.80054 9.74725 5085 ft 270 kts 80°
2026-04-30 04:43 3.80389 9.76570 4865 ft 270 kts 80°
2026-04-30 04:43 3.80725 9.78425 4694 ft 270 kts 80°
2026-04-30 04:44 3.81057 9.80256 4515 ft 270 kts 80°
2026-04-30 04:44 3.81392 9.82101 4345 ft 265 kts 80°
2026-04-30 04:44 3.81713 9.83872 4148 ft 253 kts 80°
2026-04-30 04:44 3.82195 9.85536 3964 ft 249 kts 64°
2026-04-30 04:45 3.83345 9.86815 3755 ft 250 kts 32°
2026-04-30 04:45 3.84881 9.87636 3514 ft 250 kts 25°
2026-04-30 04:45 3.86413 9.88380 3356 ft 242 kts 25°
2026-04-30 04:45 3.87898 9.89109 3212 ft 232 kts 25°
2026-04-30 04:46 3.89338 9.89737 3086 ft 219 kts 14°
2026-04-30 04:46 3.90759 9.89611 3018 ft 199 kts 332°
2026-04-30 04:46 3.91867 9.88869 3031 ft 189 kts 317°
2026-04-30 04:46 3.92630 9.87815 3031 ft 187 kts 295°
2026-04-30 04:47 3.93181 9.86633 2909 ft 188 kts 294°
2026-04-30 04:47 3.93772 9.85470 2658 ft 187 kts 296°
2026-04-30 04:47 3.94368 9.84308 2398 ft 187 kts 295°
2026-04-30 04:47 3.94949 9.83150 2144 ft 184 kts 295°
2026-04-30 04:48 3.95505 9.82050 1905 ft 170 kts 295°
2026-04-30 04:48 3.96017 9.81037 1705 ft 156 kts 295°
2026-04-30 04:48 3.96485 9.80110 1498 ft 143 kts 295°
2026-04-30 04:48 3.96914 9.79260 1310 ft 134 kts 295°
2026-04-30 04:49 3.97321 9.78453 1143 ft 126 kts 295°
2026-04-30 04:49 3.97711 9.77679 991 ft 124 kts 295°
2026-04-30 04:49 3.98102 9.76903 850 ft 125 kts 296°
2026-04-30 04:49 3.98493 9.76125 660 ft 124 kts 296°
2026-04-30 04:50 3.98888 9.75353 536 ft 124 kts 297°
2026-04-30 04:50 3.99279 9.74581 358 ft 124 kts 296°
2026-04-30 04:50 3.99659 9.73819 209 ft 123 kts 298°
2026-04-30 04:50 4.00053 9.73055 59 ft 125 kts 297°
2026-04-30 04:51 4.00419 9.72336 40 ft 100 kts 297°
2026-04-30 04:51 4.00648 9.71882 44 ft 44 kts 296°
2026-04-30 04:51 4.00726 9.71726 44 ft 20 kts 296°
2026-04-30 04:51 4.00803 9.71658 45 ft 8 kts
2026-04-30 04:52 4.00873 9.71690 42 ft 15 kts 26°
2026-04-30 04:52 4.00956 9.71734 41 ft 12 kts 28°
2026-04-30 04:52 4.01046 9.71780 40 ft 17 kts 25°
2026-04-30 04:52 4.01121 9.71786 40 ft 10 kts 331°
2026-04-30 04:53 4.01137 9.71771 40 ft 0 kts 304°